Home > Weather > Santarém > Past weeks

Flag for Brazil Weather for the Past 2 Weeks in Santarém, Pará, Brazil

Now
77 °F

Clear.


Feels Like: 78 °F
Forecast: 77 / 90 °F
Wind: 3 mph from East

Location: Santarem-Aeroporto

Current Time: Feb 10, 2016 at 6:18:00 AM

Latest Report: Feb 10, 2016 at 6:00 AM


Visibility: 10 mi

Pressure: 29.86 "Hg

Humidity: 94%

Dew point: 75 °F

Location of SantarémLocation

Historic Weather in Santarém — Graph

°F

Santarém Temperature Yesterday

Maximum temperature yesterday: 91 °F (at 3:00 PM)
Minimum temperature yesterday: 79 °F (at 5:00 AM)
Average temperature yesterday: 84 °F

High & Low Weather Summary for the Past Weeks

 TemperatureHumidityPressure
High91 °F (Jan 28, 3:00 PM)100% (Feb 1, 4:00 AM)29.98 "Hg (Feb 1, 4:00 AM)
Low73 °F (Jan 31, 8:00 AM)18% (Jan 30, 6:00 PM)29.74 "Hg (Feb 4, 5:00 PM)
Average81 °F80%29.87 "Hg
* Reported Jan 26 5:00 AM — Feb 10 5:00 AM, Santarém, Weather by CustomWeather, © 2016

Note: Actual official high and low records may vary slightly from our data, if they occured in-between our weather recording intervals... More about our weather records

Advertising

Santarém Weather History for the Previous 24 Hours

 ConditionsComfort  
Time TempWeatherWind HumidityBarometerVisibility
5:00 AM
Wed, Feb 10
77 °FPassing clouds.5 mph94%29.86 "HgN/A
4:00 AM77 °FPassing clouds.5 mph94%29.86 "HgN/A
3:00 AM79 °FPartly cloudy.7 mph89%29.86 "HgN/A
2:00 AM82 °FPassing clouds.7 mph79%29.86 "HgN/A
1:00 AM82 °FClear.8 mph79%29.89 "Hg10 mi
12:00 AM84 °FClear.5 mph79%29.89 "Hg10 mi
11:00 PM
Tue, Feb 9
84 °FClear.9 mph79%29.89 "Hg10 mi
10:00 PM84 °FClear.9 mph79%29.86 "Hg10 mi
9:00 PM84 °FClear.9 mph79%29.83 "Hg10 mi
8:00 PM86 °FPassing clouds.5 mph75%29.83 "HgN/A
7:00 PM88 °FPassing clouds.5 mph66%29.80 "HgN/A
6:00 PM90 °FPassing clouds.7 mph63%29.80 "HgN/A
5:00 PM91 °FPassing clouds.13 mph59%29.80 "HgN/A
4:00 PM91 °FPassing clouds.13 mph59%29.83 "HgN/A
3:00 PM91 °FPassing clouds.10 mph59%29.86 "HgN/A
2:00 PM90 °FScattered clouds.13 mph63%29.89 "HgN/A
1:00 PM86 °FScattered clouds.14 mph70%29.92 "HgN/A
12:00 PM86 °FScattered clouds.17 mph70%29.95 "HgN/A
11:00 AM84 °FScattered clouds.17 mph70%29.98 "HgN/A
10:00 AM82 °FScattered clouds.12 mph79%29.98 "HgN/A
9:00 AM81 °FScattered clouds.15 mph84%29.95 "HgN/A
8:00 AM79 °FBroken clouds.8 mph84%29.92 "HgN/A
7:00 AM79 °FPartly cloudy.10 mph84%29.89 "HgN/A
6:00 AM79 °FPassing clouds.12 mph84%29.86 "HgN/A
Weather by CustomWeather, © 2016

See weather overviewHow to use our weather pages